TimePDT,TemperatureF,Dew PointF,Humidity,Sea Level PressureIn,VisibilityMPH,Wind Direction,Wind SpeedMPH,Gust SpeedMPH,PrecipitationIn,Events,Conditions,WindDirDegrees,DateUTC
12:00 AM,56.3,53.8,91,29.88,-9999.0,North,-9999.0,-,N/A,,Unknown,0,2013-09-14 07:00:00
1:00 AM,55.0,53.1,93,29.89,-9999.0,North,-9999.0,-,N/A,,Unknown,0,2013-09-14 08:00:00
2:00 AM,54.3,52.5,94,29.89,-9999.0,North,-9999.0,-,N/A,,Unknown,0,2013-09-14 09:00:00
3:00 AM,53.1,51.4,94,29.90,-9999.0,North,-9999.0,-,N/A,,Unknown,0,2013-09-14 10:00:00
4:00 AM,52.5,51.1,95,29.90,-9999.0,North,-9999.0,-,N/A,,Unknown,0,2013-09-14 11:00:00
5:00 AM,51,50,94,29.90,,Calm,Calm,,,,,,2013-09-14 12:00:00
5:00 AM,51.3,49.8,95,29.91,-9999.0,North,-9999.0,-,N/A,,Unknown,0,2013-09-14 12:00:00
6:00 AM,50.2,48.7,95,29.91,-9999.0,North,-9999.0,-,N/A,,Unknown,0,2013-09-14 13:00:00
7:00 AM,49.3,47.8,95,29.92,-9999.0,North,-9999.0,-,N/A,,Unknown,0,2013-09-14 14:00:00
8:00 AM,50.4,49.1,95,29.93,-9999.0,North,-9999.0,-,N/A,,Unknown,0,2013-09-14 15:00:00
9:00 AM,56.8,55.6,96,29.93,-9999.0,North,-9999.0,-,N/A,,Unknown,0,2013-09-14 16:00:00
10:00 AM,62.2,52.5,70,29.91,-9999.0,North,-9999.0,-,N/A,,Unknown,0,2013-09-14 17:00:00
11:00 AM,69,52,43,29.88,,Calm,Calm,,,,,,2013-09-14 18:00:00
11:00 AM,69.3,51.6,53,29.88,-9999.0,North,-9999.0,-,N/A,,Unknown,0,2013-09-14 18:00:00
12:00 PM,75.0,51.4,44,29.85,-9999.0,North,-9999.0,-,N/A,,Unknown,0,2013-09-14 19:00:00
1:00 PM,77.7,47.3,34,29.82,-9999.0,North,-9999.0,-,N/A,,Unknown,0,2013-09-14 20:00:00
2:00 PM,83.3,51.1,33,29.79,-9999.0,North,-9999.0,-,N/A,,Unknown,0,2013-09-14 21:00:00
3:00 PM,88.0,52.2,29,29.77,-9999.0,North,-9999.0,-,N/A,,Unknown,0,2013-09-14 22:00:00
4:00 PM,87.8,48.7,26,29.75,-9999.0,North,-9999.0,-,N/A,,Unknown,0,2013-09-14 23:00:00
5:00 PM,86,59,30,29.73,,Calm,Calm,,,,,,2013-09-15 00:00:00
5:00 PM,86.4,58.8,39,29.73,-9999.0,North,-9999.0,-,N/A,,Unknown,0,2013-09-15 00:00:00
6:00 PM,82.8,60.4,47,29.73,-9999.0,North,-9999.0,-,N/A,,Unknown,0,2013-09-15 01:00:00
7:00 PM,71.1,59.5,67,29.73,-9999.0,North,-9999.0,-,N/A,,Unknown,0,2013-09-15 02:00:00
8:00 PM,65.1,59.0,81,29.75,-9999.0,North,-9999.0,-,N/A,,Unknown,0,2013-09-15 03:00:00
9:00 PM,61.9,56.8,84,29.77,-9999.0,North,-9999.0,-,N/A,,Unknown,0,2013-09-15 04:00:00
10:00 PM,59.0,55.9,90,29.78,-9999.0,North,-9999.0,-,N/A,,Unknown,0,2013-09-15 05:00:00
11:00 PM,58,55,85,29.79,,Calm,Calm,,,,,,2013-09-15 06:00:00
11:00 PM,57.7,54.7,90,29.79,-9999.0,North,-9999.0,-,N/A,,Unknown,0,2013-09-15 06:00:00